Data supplied by UK-AIR on 28/3/2020
All Data GMT hour ending 
Status: R =Ratified P=Provisional,P*=As supplied
,,Walsall Woodlands,,,,,,,,,,,,,,,,,,,,,,,
Date,time,"Nitric oxide",status,unit,"Nitrogen dioxide",status,unit,"Nitrogen oxides as nitrogen dioxide",status,unit,"Ozone",status,unit
 
01-01-2019,01:00,0.17498,R,ugm-3,6.17374,R,ugm-3,6.44203,R,ugm-3,61.53408,R,ugm-3
01-01-2019,02:00,0.59055,R,ugm-3,7.63867,R,ugm-3,8.54417,R,ugm-3,60.86885,R,ugm-3
01-01-2019,03:00,0.72179,R,ugm-3,10.08207,R,ugm-3,11.18879,R,ugm-3,54.43272,R,ugm-3
01-01-2019,04:00,0.85302,R,ugm-3,11.10144,R,ugm-3,12.40939,R,ugm-3,53.93379,R,ugm-3
01-01-2019,05:00,0.39370,R,ugm-3,6.87248,R,ugm-3,7.47615,R,ugm-3,58.72347,R,ugm-3
01-01-2019,06:00,0.32809,R,ugm-3,3.71817,R,ugm-3,4.22123,R,ugm-3,62.56520,R,ugm-3
01-01-2019,07:00,0.65617,R,ugm-3,2.50310,R,ugm-3,3.50921,R,ugm-3,64.71057,R,ugm-3
01-01-2019,08:00,0.62336,R,ugm-3,2.90941,R,ugm-3,3.86522,R,ugm-3,61.01853,R,ugm-3
01-01-2019,09:00,0.45932,R,ugm-3,3.97467,R,ugm-3,4.67895,R,ugm-3,56.67788,R,ugm-3
01-01-2019,10:00,0.85302,R,ugm-3,5.10018,R,ugm-3,6.40813,R,ugm-3,53.88390,R,ugm-3
01-01-2019,11:00,0.85302,R,ugm-3,5.76133,R,ugm-3,7.06928,R,ugm-3,52.58670,R,ugm-3
01-01-2019,12:00,1.11549,R,ugm-3,6.32519,R,ugm-3,8.03559,R,ugm-3,53.08562,R,ugm-3
01-01-2019,13:00,0.88583,R,ugm-3,6.98248,R,ugm-3,8.34074,R,ugm-3,56.22885,R,ugm-3
01-01-2019,14:00,0.98426,R,ugm-3,7.18757,R,ugm-3,8.69674,R,ugm-3,66.55660,R,ugm-3
01-01-2019,15:00,1.01707,R,ugm-3,6.47611,R,ugm-3,8.03559,R,ugm-3,67.40477,R,ugm-3
01-01-2019,16:00,0.68898,R,ugm-3,7.18260,R,ugm-3,8.23902,R,ugm-3,65.20950,R,ugm-3
01-01-2019,17:00,0.59055,R,ugm-3,12.72448,R,ugm-3,13.62998,R,ugm-3,56.22885,R,ugm-3
01-01-2019,18:00,0.75460,R,ugm-3,19.49138,R,ugm-3,20.64841,R,ugm-3,48.59530,R,ugm-3
01-01-2019,19:00,1.87009,R,ugm-3,35.02190,R,ugm-3,37.88932,R,ugm-3,29.88561,R,ugm-3
01-01-2019,20:00,9.94099,R,ugm-3,55.80620,R,ugm-3,71.04884,R,ugm-3,8.78108,R,ugm-3
01-01-2019,21:00,4.82286,R,ugm-3,43.71750,R,ugm-3,51.11244,R,ugm-3,12.97205,R,ugm-3
01-01-2019,22:00,0.85302,R,ugm-3,19.03531,R,ugm-3,20.34326,R,ugm-3,41.61035,R,ugm-3
01-01-2019,23:00,0.65617,R,ugm-3,21.93091,R,ugm-3,22.93703,R,ugm-3,33.62755,R,ugm-3
01-01-2019,24:00,0.95145,R,ugm-3,21.22387,R,ugm-3,22.68274,R,ugm-3,32.03099,R,ugm-3
02-01-2019,01:00,0.91771,R,ugm-3,14.92874,R,ugm-3,16.33588,R,ugm-3,27.14152,R,ugm-3
02-01-2019,02:00,0.68828,R,ugm-3,11.65410,R,ugm-3,12.70945,R,ugm-3,24.04819,R,ugm-3
02-01-2019,03:00,0.78661,R,ugm-3,12.87595,R,ugm-3,14.08207,R,ugm-3,20.35614,R,ugm-3
02-01-2019,04:00,2.13040,R,ugm-3,15.18755,R,ugm-3,18.45412,R,ugm-3,15.51657,R,ugm-3
02-01-2019,05:00,1.11437,R,ugm-3,20.86332,R,ugm-3,22.57199,R,ugm-3,15.26711,R,ugm-3
02-01-2019,06:00,4.75244,R,ugm-3,44.77094,R,ugm-3,52.05791,R,ugm-3,7.23441,R,ugm-3
02-01-2019,07:00,11.47141,R,ugm-3,37.62061,R,ugm-3,55.20986,R,ugm-3,3.54237,R,ugm-3
02-01-2019,08:00,53.19455,R,ugm-3,48.53011,R,ugm-3,130.09395,R,ugm-3,3.24301,R,ugm-3
02-01-2019,09:00,38.77335,R,ugm-3,37.34354,R,ugm-3,96.79518,R,ugm-3,3.19312,R,ugm-3
02-01-2019,10:00,90.49300,R,ugm-3,43.75372,R,ugm-3,182.50772,R,ugm-3,3.84172,R,ugm-3
02-01-2019,11:00,147.81726,R,ugm-3,54.58478,R,ugm-3,281.23474,R,ugm-3,5.03914,R,ugm-3
02-01-2019,12:00,27.53137,R,ugm-3,53.10670,R,ugm-3,95.32089,R,ugm-3,20.20646,R,ugm-3
02-01-2019,13:00,8.39051,R,ugm-3,44.27642,R,ugm-3,57.14169,R,ugm-3,30.78367,R,ugm-3
02-01-2019,14:00,11.66806,R,ugm-3,47.84251,R,ugm-3,65.73328,R,ugm-3,19.75743,R,ugm-3
02-01-2019,15:00,9.40655,R,ugm-3,47.54811,R,ugm-3,61.97128,R,ugm-3,19.00904,R,ugm-3
02-01-2019,16:00,5.67015,R,ugm-3,42.09286,R,ugm-3,50.78697,R,ugm-3,18.56001,R,ugm-3
02-01-2019,17:00,3.11367,R,ugm-3,42.96248,R,ugm-3,47.73670,R,ugm-3,22.45163,R,ugm-3
02-01-2019,18:00,15.66666,R,ugm-3,60.82642,R,ugm-3,84.84830,R,ugm-3,6.03699,R,ugm-3
02-01-2019,19:00,20.12412,R,ugm-3,57.09285,R,ugm-3,87.94940,R,ugm-3,5.28861,R,ugm-3
02-01-2019,20:00,26.94142,R,ugm-3,61.68780,R,ugm-3,102.99740,R,ugm-3,5.03914,R,ugm-3
02-01-2019,21:00,25.23709,R,ugm-3,58.09885,R,ugm-3,96.79518,R,ugm-3,5.03914,R,ugm-3
02-01-2019,22:00,8.48884,R,ugm-3,39.44858,R,ugm-3,52.46462,R,ugm-3,29.58625,R,ugm-3
02-01-2019,23:00,1.21269,R,ugm-3,36.52311,R,ugm-3,38.38254,R,ugm-3,30.88346,R,ugm-3
02-01-2019,24:00,0.91771,R,ugm-3,32.50168,R,ugm-3,33.90882,R,ugm-3,32.23056,R,ugm-3
03-01-2019,01:00,0.74216,R,ugm-3,26.37122,R,ugm-3,27.50919,R,ugm-3,31.59858,R,ugm-3
03-01-2019,02:00,1.01501,R,ugm-3,21.15907,R,ugm-3,22.71541,R,ugm-3,40.21336,R,ugm-3
03-01-2019,03:00,0.72033,R,ugm-3,17.44388,R,ugm-3,18.54837,R,ugm-3,42.95744,R,ugm-3
03-01-2019,04:00,0.55662,R,ugm-3,12.25743,R,ugm-3,13.11091,R,ugm-3,47.24820,R,ugm-3
03-01-2019,05:00,0.58936,R,ugm-3,13.52848,R,ugm-3,14.43216,R,ugm-3,45.90110,R,ugm-3
03-01-2019,06:00,1.44066,R,ugm-3,29.65356,R,ugm-3,31.86255,R,ugm-3,27.39098,R,ugm-3
03-01-2019,07:00,2.06277,R,ugm-3,26.05717,R,ugm-3,29.22004,R,ugm-3,32.23056,R,ugm-3
03-01-2019,08:00,1.73534,R,ugm-3,25.54287,R,ugm-3,28.20369,R,ugm-3,34.47572,R,ugm-3
03-01-2019,09:00,3.47069,R,ugm-3,33.80780,R,ugm-3,39.12945,R,ugm-3,25.89421,R,ugm-3
03-01-2019,10:00,7.13783,R,ugm-3,44.03997,R,ugm-3,54.98449,R,ugm-3,19.65765,R,ugm-3
03-01-2019,11:00,7.98913,R,ugm-3,38.72009,R,ugm-3,50.96991,R,ugm-3,29.73593,R,ugm-3
03-01-2019,12:00,3.83085,R,ugm-3,26.24274,R,ugm-3,32.11664,R,ugm-3,41.80992,R,ugm-3
03-01-2019,13:00,3.73263,R,ugm-3,19.17728,R,ugm-3,24.90056,R,ugm-3,49.44347,R,ugm-3
03-01-2019,14:00,1.99728,R,ugm-3,18.02679,R,ugm-3,21.08925,R,ugm-3,50.99014,R,ugm-3
03-01-2019,15:00,1.83357,R,ugm-3,20.56460,R,ugm-3,23.37603,R,ugm-3,47.84691,R,ugm-3
03-01-2019,16:00,2.97955,R,ugm-3,26.37925,R,ugm-3,30.94783,R,ugm-3,40.61250,R,ugm-3
03-01-2019,17:00,5.69717,R,ugm-3,32.88397,R,ugm-3,41.61950,R,ugm-3,23.34969,R,ugm-3
03-01-2019,18:00,7.36703,R,ugm-3,38.75925,R,ugm-3,50.05520,R,ugm-3,14.26926,R,ugm-3
03-01-2019,19:00,5.33700,R,ugm-3,41.46537,R,ugm-3,49.64866,R,ugm-3,10.22796,R,ugm-3
03-01-2019,20:00,11.03417,R,ugm-3,48.22917,R,ugm-3,65.14799,R,ugm-3,6.33635,R,ugm-3
03-01-2019,21:00,15.71632,R,ugm-3,45.92844,R,ugm-3,70.02646,R,ugm-3,4.04129,R,ugm-3
03-01-2019,22:00,19.87460,R,ugm-3,43.71953,R,ugm-3,74.19349,R,ugm-3,3.84172,R,ugm-3
03-01-2019,23:00,47.21445,R,ugm-3,46.26429,R,ugm-3,118.65877,R,ugm-3,3.74194,R,ugm-3
03-01-2019,24:00,52.25677,R,ugm-3,44.88503,R,ugm-3,125.01096,R,ugm-3,4.04129,R,ugm-3
04-01-2019,01:00,18.92774,R,ugm-3,39.65557,R,ugm-3,68.67770,R,ugm-3,5.65448,R,ugm-3
04-01-2019,02:00,6.50914,R,ugm-3,44.57557,R,ugm-3,54.55610,R,ugm-3,6.23656,R,ugm-3
04-01-2019,03:00,3.07467,R,ugm-3,35.41530,R,ugm-3,40.12972,R,ugm-3,5.33850,R,ugm-3
04-01-2019,04:00,2.55132,R,ugm-3,29.76652,R,ugm-3,33.67849,R,ugm-3,3.84172,R,ugm-3
04-01-2019,05:00,7.52312,R,ugm-3,28.59443,R,ugm-3,40.12972,R,ugm-3,2.49463,R,ugm-3
04-01-2019,06:00,5.39702,R,ugm-3,26.57150,R,ugm-3,34.84682,R,ugm-3,2.99355,R,ugm-3
04-01-2019,07:00,21.42455,R,ugm-3,30.08712,R,ugm-3,62.93763,R,ugm-3,2.29506,R,ugm-3
04-01-2019,08:00,92.79609,R,ugm-3,38.45080,R,ugm-3,180.73614,R,ugm-3,1.94581,R,ugm-3
04-01-2019,09:00,150.49517,R,ugm-3,51.32035,R,ugm-3,282.07639,R,ugm-3,3.09334,R,ugm-3
04-01-2019,10:00,126.81368,R,ugm-3,57.10239,R,ugm-3,251.54732,R,ugm-3,4.44043,R,ugm-3
04-01-2019,11:00,24.69547,R,ugm-3,49.50518,R,ugm-3,87.37104,R,ugm-3,16.36474,R,ugm-3
04-01-2019,12:00,10.36883,R,ugm-3,37.28594,R,ugm-3,53.18458,R,ugm-3,26.94195,R,ugm-3
04-01-2019,13:00,10.13986,R,ugm-3,36.51947,R,ugm-3,52.06705,R,ugm-3,26.24346,R,ugm-3
04-01-2019,14:00,10.04173,R,ugm-3,37.88907,R,ugm-3,53.28618,R,ugm-3,24.04819,R,ugm-3
04-01-2019,15:00,10.36883,R,ugm-3,44.24514,R,ugm-3,60.14379,R,ugm-3,19.35829,R,ugm-3
04-01-2019,16:00,7.22874,R,ugm-3,41.54190,R,ugm-3,52.62581,R,ugm-3,18.31055,R,ugm-3
04-01-2019,17:00,8.56982,R,ugm-3,46.14003,R,ugm-3,59.28024,R,ugm-3,11.17592,R,ugm-3
04-01-2019,18:00,15.27521,R,ugm-3,50.43735,R,ugm-3,73.85901,R,ugm-3,6.88517,R,ugm-3
04-01-2019,19:00,27.60659,R,ugm-3,56.31849,R,ugm-3,98.64800,R,ugm-3,5.23871,R,ugm-3
04-01-2019,20:00,10.79405,R,ugm-3,52.07627,R,ugm-3,68.62691,R,ugm-3,8.88087,R,ugm-3
04-01-2019,21:00,8.07918,R,ugm-3,51.51487,R,ugm-3,63.90277,R,ugm-3,9.18022,R,ugm-3
04-01-2019,22:00,4.28491,R,ugm-3,41.33158,R,ugm-3,47.90168,R,ugm-3,21.40388,R,ugm-3
04-01-2019,23:00,1.34108,R,ugm-3,24.40901,R,ugm-3,26.46530,R,ugm-3,35.22411,R,ugm-3
04-01-2019,24:00,1.01399,R,ugm-3,19.67844,R,ugm-3,21.23320,R,ugm-3,39.06583,R,ugm-3
05-01-2019,01:00,0.78423,R,ugm-3,17.75420,R,ugm-3,18.95666,R,ugm-3,40.64576,R,ugm-3
05-01-2019,02:00,0.98028,R,ugm-3,15.96413,R,ugm-3,17.46721,R,ugm-3,39.71443,R,ugm-3
05-01-2019,03:00,0.68620,R,ugm-3,16.61816,R,ugm-3,17.67032,R,ugm-3,40.36303,R,ugm-3
05-01-2019,04:00,0.88226,R,ugm-3,13.42327,R,ugm-3,14.77604,R,ugm-3,43.05723,R,ugm-3
05-01-2019,05:00,0.71888,R,ugm-3,8.24067,R,ugm-3,9.34293,R,ugm-3,46.84906,R,ugm-3
05-01-2019,06:00,0.58817,R,ugm-3,10.92914,R,ugm-3,11.83099,R,ugm-3,48.39573,R,ugm-3
05-01-2019,07:00,1.11099,R,ugm-3,13.98653,R,ugm-3,15.69002,R,ugm-3,50.34153,R,ugm-3
05-01-2019,08:00,0.75155,R,ugm-3,20.12311,R,ugm-3,21.27547,R,ugm-3,43.60605,R,ugm-3
05-01-2019,09:00,0.98028,R,ugm-3,25.71327,R,ugm-3,27.21635,R,ugm-3,37.16991,R,ugm-3
05-01-2019,10:00,3.62705,R,ugm-3,31.91186,R,ugm-3,37.47326,R,ugm-3,30.63400,R,ugm-3
05-01-2019,11:00,5.42424,R,ugm-3,32.35515,R,ugm-3,40.67220,R,ugm-3,30.43443,R,ugm-3
05-01-2019,12:00,5.19550,R,ugm-3,34.68616,R,ugm-3,42.65249,R,ugm-3,29.03744,R,ugm-3
05-01-2019,13:00,6.76396,R,ugm-3,32.53512,R,ugm-3,42.90637,R,ugm-3,34.97464,R,ugm-3
05-01-2019,14:00,6.30649,R,ugm-3,34.81064,R,ugm-3,44.48045,R,ugm-3,31.28260,R,ugm-3
05-01-2019,15:00,5.94705,R,ugm-3,38.40837,R,ugm-3,47.52706,R,ugm-3,26.49292,R,ugm-3
05-01-2019,16:00,8.82255,R,ugm-3,44.10391,R,ugm-3,57.63164,R,ugm-3,19.15872,R,ugm-3
05-01-2019,17:00,12.44960,R,ugm-3,54.23254,R,ugm-3,73.32166,R,ugm-3,10.92646,R,ugm-3
05-01-2019,18:00,8.92058,R,ugm-3,50.80847,R,ugm-3,64.48650,R,ugm-3,12.12388,R,ugm-3
05-01-2019,19:00,6.66593,R,ugm-3,45.02418,R,ugm-3,55.24513,R,ugm-3,22.50152,R,ugm-3
05-01-2019,20:00,8.85523,R,ugm-3,50.55324,R,ugm-3,64.13106,R,ugm-3,16.86367,R,ugm-3
05-01-2019,21:00,1.63381,R,ugm-3,30.85521,R,ugm-3,33.36034,R,ugm-3,40.66239,R,ugm-3
05-01-2019,22:00,0.91493,R,ugm-3,26.01658,R,ugm-3,27.41946,R,ugm-3,40.31314,R,ugm-3
05-01-2019,23:00,0.98028,R,ugm-3,20.02627,R,ugm-3,21.52935,R,ugm-3,49.99229,R,ugm-3
05-01-2019,24:00,1.11099,R,ugm-3,27.79781,R,ugm-3,29.50131,R,ugm-3,39.51486,R,ugm-3
06-01-2019,01:00,1.04458,R,ugm-3,28.10777,R,ugm-3,29.70943,R,ugm-3,33.86038,R,ugm-3
06-01-2019,02:00,1.46894,R,ugm-3,23.78571,R,ugm-3,26.03805,R,ugm-3,31.08303,R,ugm-3
06-01-2019,03:00,0.91400,R,ugm-3,21.43894,R,ugm-3,22.84039,R,ugm-3,20.70539,R,ugm-3
06-01-2019,04:00,1.10986,R,ugm-3,24.94536,R,ugm-3,26.64713,R,ugm-3,24.79657,R,ugm-3
06-01-2019,05:00,0.88136,R,ugm-3,17.73302,R,ugm-3,19.08442,R,ugm-3,38.66669,R,ugm-3
06-01-2019,06:00,1.30572,R,ugm-3,19.31562,R,ugm-3,21.31770,R,ugm-3,33.72733,R,ugm-3
06-01-2019,07:00,0.58757,R,ugm-3,19.40164,R,ugm-3,20.30257,R,ugm-3,41.26110,R,ugm-3
06-01-2019,08:00,0.97929,R,ugm-3,18.75026,R,ugm-3,20.25181,R,ugm-3,40.31314,R,ugm-3
06-01-2019,09:00,1.40365,R,ugm-3,18.45488,R,ugm-3,20.60711,R,ugm-3,38.86626,R,ugm-3
06-01-2019,10:00,2.83994,R,ugm-3,21.07445,R,ugm-3,25.42897,R,ugm-3,35.52346,R,ugm-3
06-01-2019,11:00,1.89330,R,ugm-3,14.45569,R,ugm-3,17.35870,R,ugm-3,47.34798,R,ugm-3
06-01-2019,12:00,2.31765,R,ugm-3,12.33308,R,ugm-3,15.88676,R,ugm-3,51.88820,R,ugm-3
06-01-2019,13:00,3.06844,R,ugm-3,12.50155,R,ugm-3,17.20643,R,ugm-3,55.77982,R,ugm-3
06-01-2019,14:00,2.12180,R,ugm-3,14.20684,R,ugm-3,17.46021,R,ugm-3,51.73852,R,ugm-3
06-01-2019,15:00,2.05651,R,ugm-3,15.32207,R,ugm-3,18.47534,R,ugm-3,49.19401,R,ugm-3
06-01-2019,16:00,2.02387,R,ugm-3,18.26524,R,ugm-3,21.36846,R,ugm-3,39.56475,R,ugm-3
06-01-2019,17:00,3.75395,R,ugm-3,33.27572,R,ugm-3,39.03169,R,ugm-3,24.64690,R,ugm-3
06-01-2019,18:00,1.69744,R,ugm-3,25.11031,R,ugm-3,27.71301,R,ugm-3,36.92045,R,ugm-3
06-01-2019,19:00,1.04458,R,ugm-3,19.96982,R,ugm-3,21.57148,R,ugm-3,41.31099,R,ugm-3
06-01-2019,20:00,0.97929,R,ugm-3,19.25782,R,ugm-3,20.75938,R,ugm-3,45.20261,R,ugm-3
06-01-2019,21:00,1.37101,R,ugm-3,23.02225,R,ugm-3,25.12443,R,ugm-3,43.55615,R,ugm-3
06-01-2019,22:00,1.17515,R,ugm-3,17.28255,R,ugm-3,19.08442,R,ugm-3,49.84261,R,ugm-3
06-01-2019,23:00,1.01193,R,ugm-3,9.41178,R,ugm-3,10.96339,R,ugm-3,60.51960,R,ugm-3
06-01-2019,24:00,0.48965,R,ugm-3,6.25361,R,ugm-3,7.00439,R,ugm-3,63.11401,R,ugm-3
07-01-2019,01:00,0.56524,R,ugm-3,6.10107,R,ugm-3,6.96776,R,ugm-3,63.59631,R,ugm-3
07-01-2019,02:00,0.68481,R,ugm-3,4.02358,R,ugm-3,5.07361,R,ugm-3,62.56520,R,ugm-3
07-01-2019,03:00,0.32610,R,ugm-3,3.40667,R,ugm-3,3.90668,R,ugm-3,59.67143,R,ugm-3
07-01-2019,04:00,0.45654,R,ugm-3,4.62727,R,ugm-3,5.32729,R,ugm-3,56.87745,R,ugm-3
07-01-2019,05:00,0.39132,R,ugm-3,5.38684,R,ugm-3,5.98686,R,ugm-3,56.17896,R,ugm-3
07-01-2019,06:00,1.66311,R,ugm-3,15.71493,R,ugm-3,18.26499,R,ugm-3,31.13292,R,ugm-3
07-01-2019,07:00,2.47835,R,ugm-3,31.25855,R,ugm-3,35.05863,R,ugm-3,31.08303,R,ugm-3
07-01-2019,08:00,2.83706,R,ugm-3,25.07683,R,ugm-3,29.42693,R,ugm-3,40.21336,R,ugm-3
07-01-2019,09:00,12.03306,R,ugm-3,34.21363,R,ugm-3,52.66406,R,ugm-3,33.72733,R,ugm-3
07-01-2019,10:00,3.75014,R,ugm-3,23.06796,R,ugm-3,28.81810,R,ugm-3,42.60820,R,ugm-3
07-01-2019,11:00,2.57618,R,ugm-3,17.81569,R,ugm-3,21.76578,R,ugm-3,46.05078,R,ugm-3
07-01-2019,12:00,3.65231,R,ugm-3,18.55025,R,ugm-3,24.15038,R,ugm-3,45.10282,R,ugm-3
07-01-2019,13:00,2.51096,R,ugm-3,16.85023,R,ugm-3,20.70032,R,ugm-3,47.49766,R,ugm-3
07-01-2019,14:00,1.72833,R,ugm-3,11.15015,R,ugm-3,13.80022,R,ugm-3,57.02713,R,ugm-3
07-01-2019,15:00,2.83706,R,ugm-3,15.89360,R,ugm-3,20.24370,R,ugm-3,51.98799,R,ugm-3
07-01-2019,16:00,2.96750,R,ugm-3,18.23040,R,ugm-3,22.78050,R,ugm-3,48.99444,R,ugm-3
07-01-2019,17:00,5.60890,R,ugm-3,14.28177,R,ugm-3,22.88197,R,ugm-3,54.88175,R,ugm-3
07-01-2019,18:00,5.08715,R,ugm-3,14.82811,R,ugm-3,22.62829,R,ugm-3,53.28519,R,ugm-3
07-01-2019,19:00,1.46745,R,ugm-3,14.54359,R,ugm-3,16.79364,R,ugm-3,51.78842,R,ugm-3
07-01-2019,20:00,0.55437,R,ugm-3,6.45598,R,ugm-3,7.30600,R,ugm-3,67.25509,R,ugm-3
07-01-2019,21:00,0.29349,R,ugm-3,3.30446,R,ugm-3,3.75447,R,ugm-3,78.48090,R,ugm-3
07-01-2019,22:00,0.45654,R,ugm-3,4.22139,R,ugm-3,4.92140,R,ugm-3,75.93639,R,ugm-3
07-01-2019,23:00,0.52176,R,ugm-3,2.44709,R,ugm-3,3.24711,R,ugm-3,77.03402,R,ugm-3
07-01-2019,24:00,0.52176,R,ugm-3,2.75151,R,ugm-3,3.55153,R,ugm-3,74.24004,R,ugm-3
08-01-2019,01:00,0.34749,R,ugm-3,1.90155,R,ugm-3,2.43436,R,ugm-3,74.24004,R,ugm-3
08-01-2019,02:00,0.58638,R,ugm-3,2.39742,R,ugm-3,3.29652,R,ugm-3,72.29423,R,ugm-3
08-01-2019,03:00,0.29319,R,ugm-3,1.73122,R,ugm-3,2.18078,R,ugm-3,73.19230,R,ugm-3
08-01-2019,04:00,0.42350,R,ugm-3,1.48071,R,ugm-3,2.13006,R,ugm-3,73.34198,R,ugm-3
08-01-2019,05:00,0.55381,R,ugm-3,2.19379,R,ugm-3,3.04294,R,ugm-3,72.94284,R,ugm-3
08-01-2019,06:00,0.91215,R,ugm-3,2.91223,R,ugm-3,4.31084,R,ugm-3,71.34628,R,ugm-3
08-01-2019,07:00,0.94473,R,ugm-3,6.36166,R,ugm-3,7.81022,R,ugm-3,67.75402,R,ugm-3
08-01-2019,08:00,0.84700,R,ugm-3,10.77164,R,ugm-3,12.07035,R,ugm-3,65.85810,R,ugm-3
08-01-2019,09:00,1.56369,R,ugm-3,14.54144,R,ugm-3,16.93906,R,ugm-3,60.96864,R,ugm-3
08-01-2019,10:00,1.92203,R,ugm-3,12.87624,R,ugm-3,15.82331,R,ugm-3,61.66713,R,ugm-3
08-01-2019,11:00,2.28038,R,ugm-3,9.84171,R,ugm-3,13.33824,R,ugm-3,64.81036,R,ugm-3
08-01-2019,12:00,2.41068,R,ugm-3,8.47545,R,ugm-3,12.17178,R,ugm-3,67.55445,R,ugm-3
08-01-2019,13:00,2.05234,R,ugm-3,8.01059,R,ugm-3,11.15746,R,ugm-3,68.75187,R,ugm-3
08-01-2019,14:00,1.85688,R,ugm-3,6.33238,R,ugm-3,9.17955,R,ugm-3,71.34628,R,ugm-3
08-01-2019,15:00,1.62884,R,ugm-3,8.60923,R,ugm-3,11.10675,R,ugm-3,69.99918,R,ugm-3
08-01-2019,16:00,1.30307,R,ugm-3,13.52100,R,ugm-3,15.51902,R,ugm-3,62.41552,R,ugm-3
08-01-2019,17:00,1.27050,R,ugm-3,16.30960,R,ugm-3,18.25767,R,ugm-3,58.42412,R,ugm-3
08-01-2019,18:00,1.20534,R,ugm-3,17.17024,R,ugm-3,19.01840,R,ugm-3,55.53035,R,ugm-3
08-01-2019,19:00,1.40080,R,ugm-3,22.04354,R,ugm-3,24.19141,R,ugm-3,48.04648,R,ugm-3
08-01-2019,20:00,1.30307,R,ugm-3,23.51200,R,ugm-3,25.51002,R,ugm-3,43.75572,R,ugm-3
08-01-2019,21:00,2.05234,R,ugm-3,30.62981,R,ugm-3,33.77668,R,ugm-3,35.57335,R,ugm-3
08-01-2019,22:00,1.43338,R,ugm-3,27.26803,R,ugm-3,29.46585,R,ugm-3,34.47572,R,ugm-3
08-01-2019,23:00,1.04246,R,ugm-3,24.41876,R,ugm-3,26.01717,R,ugm-3,35.37378,R,ugm-3
08-01-2019,24:00,0.97730,R,ugm-3,15.13625,R,ugm-3,16.63476,R,ugm-3,43.30669,R,ugm-3
09-01-2019,01:00,0.39053,R,ugm-3,11.90607,R,ugm-3,12.50486,R,ugm-3,44.96977,R,ugm-3
09-01-2019,02:00,0.71596,R,ugm-3,11.77884,R,ugm-3,12.87663,R,ugm-3,46.44992,R,ugm-3
09-01-2019,03:00,0.71596,R,ugm-3,11.06910,R,ugm-3,12.16690,R,ugm-3,44.75357,R,ugm-3
09-01-2019,04:00,0.81359,R,ugm-3,19.74040,R,ugm-3,20.98789,R,ugm-3,32.57980,R,ugm-3
09-01-2019,05:00,1.07394,R,ugm-3,28.16221,R,ugm-3,29.80889,R,ugm-3,20.00689,R,ugm-3
09-01-2019,06:00,4.26322,R,ugm-3,37.31467,R,ugm-3,43.85152,R,ugm-3,12.32345,R,ugm-3
09-01-2019,07:00,10.86959,R,ugm-3,44.77634,R,ugm-3,61.44282,R,ugm-3,7.68345,R,ugm-3
09-01-2019,08:00,7.32233,R,ugm-3,39.31589,R,ugm-3,50.54331,R,ugm-3,15.21721,R,ugm-3
09-01-2019,09:00,12.62695,R,ugm-3,47.50617,R,ugm-3,66.86723,R,ugm-3,10.92646,R,ugm-3
09-01-2019,10:00,13.76598,R,ugm-3,48.90280,R,ugm-3,70.01034,R,ugm-3,14.91786,R,ugm-3
09-01-2019,11:00,13.76598,R,ugm-3,45.86107,R,ugm-3,66.96862,R,ugm-3,20.15657,R,ugm-3
09-01-2019,12:00,7.51759,R,ugm-3,29.78993,R,ugm-3,41.31675,R,ugm-3,34.47572,R,ugm-3
09-01-2019,13:00,7.45251,R,ugm-3,26.39175,R,ugm-3,37.81876,R,ugm-3,42.90755,R,ugm-3
09-01-2019,14:00,5.76023,R,ugm-3,23.91699,R,ugm-3,32.74923,R,ugm-3,47.34798,R,ugm-3
09-01-2019,15:00,5.95550,R,ugm-3,27.26766,R,ugm-3,36.39929,R,ugm-3,45.40218,R,ugm-3
09-01-2019,16:00,5.82532,R,ugm-3,38.51886,R,ugm-3,47.45089,R,ugm-3,33.72733,R,ugm-3
09-01-2019,17:00,6.41111,R,ugm-3,50.09173,R,ugm-3,59.92196,R,ugm-3,20.30625,R,ugm-3
09-01-2019,18:00,11.91099,R,ugm-3,59.19930,R,ugm-3,77.46256,R,ugm-3,9.72904,R,ugm-3
09-01-2019,19:00,4.71884,R,ugm-3,46.29889,R,ugm-3,53.53434,R,ugm-3,18.56001,R,ugm-3
09-01-2019,20:00,2.66858,R,ugm-3,39.50627,R,ugm-3,43.59804,R,ugm-3,23.20001,R,ugm-3
09-01-2019,21:00,7.90812,R,ugm-3,49.92555,R,ugm-3,62.05116,R,ugm-3,12.07399,R,ugm-3
09-01-2019,22:00,7.61522,R,ugm-3,54.98793,R,ugm-3,66.66445,R,ugm-3,8.33205,R,ugm-3
09-01-2019,23:00,7.74540,R,ugm-3,56.46128,R,ugm-3,68.33739,R,ugm-3,6.63570,R,ugm-3
09-01-2019,24:00,3.77507,R,ugm-3,46.47859,R,ugm-3,52.26695,R,ugm-3,8.58151,R,ugm-3
10-01-2019,01:00,1.60386,R,ugm-3,33.75656,R,ugm-3,36.21577,R,ugm-3,15.23384,R,ugm-3
10-01-2019,02:00,1.30042,R,ugm-3,30.74213,R,ugm-3,32.73608,R,ugm-3,14.31915,R,ugm-3
10-01-2019,03:00,1.26791,R,ugm-3,28.51160,R,ugm-3,30.45571,R,ugm-3,16.06539,R,ugm-3
10-01-2019,04:00,1.00783,R,ugm-3,26.47799,R,ugm-3,28.02330,R,ugm-3,21.70324,R,ugm-3
10-01-2019,05:00,2.08068,R,ugm-3,19.36007,R,ugm-3,22.55040,R,ugm-3,34.17636,R,ugm-3
10-01-2019,06:00,2.63336,R,ugm-3,25.60715,R,ugm-3,29.64491,R,ugm-3,24.54711,R,ugm-3
10-01-2019,07:00,6.43710,R,ugm-3,34.16654,R,ugm-3,44.03662,R,ugm-3,9.62925,R,ugm-3
10-01-2019,08:00,23.79775,R,ugm-3,53.10412,R,ugm-3,89.59349,R,ugm-3,6.13678,R,ugm-3
10-01-2019,09:00,30.72250,R,ugm-3,56.32060,R,ugm-3,103.42778,R,ugm-3,7.18452,R,ugm-3
10-01-2019,10:00,11.63879,R,ugm-3,45.95399,R,ugm-3,63.79989,R,ugm-3,16.01549,R,ugm-3
10-01-2019,11:00,7.47744,R,ugm-3,36.01728,R,ugm-3,47.48252,R,ugm-3,24.84647,R,ugm-3
10-01-2019,12:00,7.37990,R,ugm-3,30.99797,R,ugm-3,42.31367,R,ugm-3,27.74023,R,ugm-3
10-01-2019,13:00,5.81939,R,ugm-3,26.29621,R,ugm-3,35.21916,R,ugm-3,30.68389,R,ugm-3
10-01-2019,14:00,5.49429,R,ugm-3,23.75420,R,ugm-3,32.17866,R,ugm-3,28.93765,R,ugm-3
10-01-2019,15:00,5.78689,R,ugm-3,25.02851,R,ugm-3,33.90161,R,ugm-3,23.54926,R,ugm-3
10-01-2019,16:00,5.98195,R,ugm-3,27.06047,R,ugm-3,36.23266,R,ugm-3,18.60990,R,ugm-3
10-01-2019,17:00,4.29140,R,ugm-3,26.71346,R,ugm-3,33.29351,R,ugm-3,17.71184,R,ugm-3
10-01-2019,18:00,4.29140,R,ugm-3,26.30806,R,ugm-3,32.88811,R,ugm-3,15.91571,R,ugm-3
10-01-2019,19:00,3.47863,R,ugm-3,26.54078,R,ugm-3,31.87461,R,ugm-3,17.16302,R,ugm-3
10-01-2019,20:00,1.78808,R,ugm-3,19.30196,R,ugm-3,22.04365,R,ugm-3,27.04174,R,ugm-3
10-01-2019,21:00,1.00783,R,ugm-3,18.16728,R,ugm-3,19.71260,R,ugm-3,36.67099,R,ugm-3
10-01-2019,22:00,0.55268,R,ugm-3,11.77066,R,ugm-3,12.61809,R,ugm-3,53.83401,R,ugm-3
10-01-2019,23:00,0.71523,R,ugm-3,12.02816,R,ugm-3,13.12484,R,ugm-3,54.48261,R,ugm-3
10-01-2019,24:00,0.48766,R,ugm-3,11.76901,R,ugm-3,12.51674,R,ugm-3,57.17681,R,ugm-3
11-01-2019,01:00,0.38973,R,ugm-3,10.14122,R,ugm-3,10.73880,R,ugm-3,57.40964,R,ugm-3
11-01-2019,02:00,0.58460,R,ugm-3,8.98130,R,ugm-3,9.87767,R,ugm-3,56.22885,R,ugm-3
11-01-2019,03:00,0.42221,R,ugm-3,7.20410,R,ugm-3,7.85148,R,ugm-3,57.77552,R,ugm-3
11-01-2019,04:00,0.42221,R,ugm-3,7.66000,R,ugm-3,8.30737,R,ugm-3,56.87745,R,ugm-3
11-01-2019,05:00,0.61707,R,ugm-3,7.46252,R,ugm-3,8.40868,R,ugm-3,58.87315,R,ugm-3
11-01-2019,06:00,0.97433,R,ugm-3,12.94265,R,ugm-3,14.43659,R,ugm-3,49.74282,R,ugm-3
11-01-2019,07:00,2.40333,R,ugm-3,25.69467,R,ugm-3,29.37973,R,ugm-3,30.58410,R,ugm-3
11-01-2019,08:00,2.04608,R,ugm-3,26.14114,R,ugm-3,29.27842,R,ugm-3,33.12862,R,ugm-3
11-01-2019,09:00,2.24095,R,ugm-3,23.81616,R,ugm-3,27.25223,R,ugm-3,39.26540,R,ugm-3
11-01-2019,10:00,2.14351,R,ugm-3,16.11408,R,ugm-3,19.40075,R,ugm-3,49.79272,R,ugm-3
11-01-2019,11:00,4.09216,R,ugm-3,19.81261,R,ugm-3,26.08717,R,ugm-3,43.55615,R,ugm-3
11-01-2019,12:00,2.82554,R,ugm-3,13.44737,R,ugm-3,17.77980,R,ugm-3,54.13336,R,ugm-3
11-01-2019,13:00,1.88369,R,ugm-3,15.19544,R,ugm-3,18.08373,R,ugm-3,56.27874,R,ugm-3
11-01-2019,14:00,2.24095,R,ugm-3,15.96468,R,ugm-3,19.40075,R,ugm-3,52.78627,R,ugm-3
11-01-2019,15:00,2.20847,R,ugm-3,21.23192,R,ugm-3,24.61819,R,ugm-3,47.44777,R,ugm-3
11-01-2019,16:00,2.43581,R,ugm-3,27.36713,R,ugm-3,31.10199,R,ugm-3,41.46067,R,ugm-3
11-01-2019,17:00,2.20847,R,ugm-3,32.12268,R,ugm-3,35.50895,R,ugm-3,37.86841,R,ugm-3
11-01-2019,18:00,3.05288,R,ugm-3,42.57982,R,ugm-3,47.26084,R,ugm-3,27.39098,R,ugm-3
11-01-2019,19:00,8.37919,R,ugm-3,53.96565,R,ugm-3,66.81356,R,ugm-3,19.60775,R,ugm-3
11-01-2019,20:00,4.28703,R,ugm-3,47.01933,R,ugm-3,53.59268,R,ugm-3,25.79442,R,ugm-3
11-01-2019,21:00,1.62387,R,ugm-3,27.75095,R,ugm-3,30.24086,R,ugm-3,44.75357,R,ugm-3
11-01-2019,22:00,1.13671,R,ugm-3,21.10234,R,ugm-3,22.84527,R,ugm-3,49.24390,R,ugm-3
11-01-2019,23:00,1.75378,R,ugm-3,18.63653,R,ugm-3,21.32563,R,ugm-3,46.74927,R,ugm-3
11-01-2019,24:00,0.81194,R,ugm-3,14.00211,R,ugm-3,15.24707,R,ugm-3,47.94669,R,ugm-3
12-01-2019,01:00,0.77866,R,ugm-3,15.75170,R,ugm-3,16.94563,R,ugm-3,44.03845,R,ugm-3
12-01-2019,02:00,0.71378,R,ugm-3,7.36150,R,ugm-3,8.45594,R,ugm-3,53.33508,R,ugm-3
12-01-2019,03:00,0.35689,R,ugm-3,4.41495,R,ugm-3,4.96217,R,ugm-3,56.47831,R,ugm-3
12-01-2019,04:00,0.38933,R,ugm-3,4.66901,R,ugm-3,5.26597,R,ugm-3,56.22885,R,ugm-3
12-01-2019,05:00,0.51911,R,ugm-3,3.10289,R,ugm-3,3.89885,R,ugm-3,58.02498,R,ugm-3
12-01-2019,06:00,0.61644,R,ugm-3,3.05492,R,ugm-3,4.00011,R,ugm-3,59.77122,R,ugm-3
12-01-2019,07:00,0.51911,R,ugm-3,4.01431,R,ugm-3,4.81027,R,ugm-3,58.42412,R,ugm-3
12-01-2019,08:00,0.61644,R,ugm-3,7.81455,R,ugm-3,8.75975,R,ugm-3,51.08992,R,ugm-3
12-01-2019,09:00,0.71378,R,ugm-3,9.48814,R,ugm-3,10.58258,R,ugm-3,51.53895,R,ugm-3
12-01-2019,10:00,0.90844,R,ugm-3,7.56936,R,ugm-3,8.96228,R,ugm-3,60.56950,R,ugm-3
12-01-2019,11:00,0.97333,R,ugm-3,9.64714,R,ugm-3,11.13956,R,ugm-3,57.62584,R,ugm-3
12-01-2019,12:00,1.91422,R,ugm-3,11.49570,R,ugm-3,14.43079,R,ugm-3,57.57595,R,ugm-3
12-01-2019,13:00,1.49244,R,ugm-3,10.52212,R,ugm-3,12.81049,R,ugm-3,59.72132,R,ugm-3
12-01-2019,14:00,1.62222,R,ugm-3,8.55092,R,ugm-3,11.03829,R,ugm-3,61.06842,R,ugm-3
12-01-2019,15:00,1.33022,R,ugm-3,8.39104,R,ugm-3,10.43068,R,ugm-3,61.96649,R,ugm-3
12-01-2019,16:00,1.23289,R,ugm-3,7.73013,R,ugm-3,9.62053,R,ugm-3,63.86240,R,ugm-3
12-01-2019,17:00,1.07067,R,ugm-3,7.82696,R,ugm-3,9.46863,R,ugm-3,62.81466,R,ugm-3
12-01-2019,18:00,0.90844,R,ugm-3,7.16428,R,ugm-3,8.55721,R,ugm-3,61.86670,R,ugm-3
12-01-2019,19:00,0.87600,R,ugm-3,5.79627,R,ugm-3,7.13945,R,ugm-3,63.76262,R,ugm-3